TAY6SL ESGG-EBLG

Flight info

Callsign TAY6SL
Flight time 1h 36m
Altitude 34000
Route VADIN M852 ALS N872 PAM/N0448F350 N872 NIK
Aircraft B738/M-SDE2E3FGHIRWXY/LB1

Departure

Time 2026-05-07 16:11
Airport Göteborg Landvetter Airport (ESGG)

Arrival

Time 2026-05-07 17:48
Airport Liège Airport (EBLG)
Time Latitude Longitude Altitude Speed Heading
2026-05-07 15:32 57.67173 12.29658 515 ft 0 kts 116°
2026-05-07 16:03 57.67183 12.29619 515 ft 4 kts 111°
2026-05-07 16:03 57.67188 12.29573 515 ft 4 kts 77°
2026-05-07 16:03 57.67176 12.29533 515 ft 4 kts 28°
2026-05-07 16:03 57.67168 12.29525 515 ft 0 kts 24°
2026-05-07 16:07 57.67179 12.29533 515 ft 4 kts 14°
2026-05-07 16:07 57.67210 12.29486 515 ft 8 kts 297°
2026-05-07 16:07 57.67238 12.29394 515 ft 4 kts 310°
2026-05-07 16:07 57.67263 12.29385 515 ft 4 kts 22°
2026-05-07 16:08 57.67317 12.29435 515 ft 9 kts 26°
2026-05-07 16:08 57.67383 12.29489 515 ft 3 kts
2026-05-07 16:08 57.67407 12.29467 515 ft 6 kts 314°
2026-05-07 16:08 57.67439 12.29373 515 ft 11 kts 294°
2026-05-07 16:09 57.67456 12.29307 515 ft 4 kts 294°
2026-05-07 16:09 57.67459 12.29287 515 ft 0 kts 282°
2026-05-07 16:10 57.67461 12.29253 514 ft 7 kts 271°
2026-05-07 16:10 57.67445 12.29096 514 ft 16 kts 246°
2026-05-07 16:10 57.67346 12.28947 514 ft 21 kts 206°
2026-05-07 16:11 57.66927 12.28565 512 ft 125 kts 205°
2026-05-07 16:11 57.65912 12.27600 1048 ft 189 kts 211°
2026-05-07 16:11 57.64632 12.26400 2371 ft 206 kts 208°
2026-05-07 16:11 57.63387 12.25280 4150 ft 189 kts 206°
2026-05-07 16:12 57.62149 12.24187 4956 ft 218 kts 205°
2026-05-07 16:12 57.60599 12.23276 5454 ft 241 kts 185°
2026-05-07 16:12 57.58873 12.23062 6282 ft 258 kts 184°
2026-05-07 16:12 57.57035 12.22812 7244 ft 269 kts 185°
2026-05-07 16:13 57.55171 12.22532 8392 ft 274 kts 186°
2026-05-07 16:13 57.53259 12.22154 9569 ft 279 kts 188°
2026-05-07 16:13 57.51318 12.21738 10628 ft 288 kts 189°
2026-05-07 16:13 57.49182 12.21276 11086 ft 318 kts 188°
2026-05-07 16:14 57.46887 12.20788 11852 ft 332 kts 188°
2026-05-07 16:14 57.44626 12.20109 12888 ft 335 kts 200°
2026-05-07 16:14 57.43216 12.18947 13624 ft 334 kts 213°
2026-05-07 16:14 57.41426 12.16171 14622 ft 336 kts 226°
2026-05-07 16:15 57.39760 12.13055 15577 ft 340 kts 227°
2026-05-07 16:15 57.37558 12.08819 16838 ft 346 kts 228°
2026-05-07 16:15 57.36438 12.06665 17474 ft 349 kts 228°
2026-05-07 16:15 57.34702 12.03350 18416 ft 354 kts 227°
2026-05-07 16:16 57.32989 12.00106 19219 ft 358 kts 227°
2026-05-07 16:16 57.31229 11.96796 20050 ft 361 kts 227°
2026-05-07 16:16 57.29449 11.93462 20850 ft 365 kts 227°
2026-05-07 16:16 57.27647 11.90097 21637 ft 369 kts 227°
2026-05-07 16:17 57.25826 11.86706 22430 ft 373 kts 227°
2026-05-07 16:17 57.23977 11.83267 23200 ft 377 kts 227°
2026-05-07 16:17 57.22139 11.79855 23884 ft 381 kts 227°
2026-05-07 16:17 57.20249 11.76349 24499 ft 385 kts 227°
2026-05-07 16:18 57.18344 11.72821 25128 ft 387 kts 227°
2026-05-07 16:18 57.16453 11.69326 25727 ft 391 kts 227°
2026-05-07 16:18 57.14499 11.65770 26312 ft 395 kts 224°
2026-05-07 16:18 57.12222 11.62949 26830 ft 404 kts 208°
2026-05-07 16:19 57.09626 11.60854 27436 ft 406 kts 205°
2026-05-07 16:19 57.06995 11.58845 27987 ft 410 kts 205°
2026-05-07 16:19 57.04326 11.56830 28500 ft 414 kts 205°
2026-05-07 16:19 57.01686 11.54828 28993 ft 417 kts 205°
2026-05-07 16:20 56.98995 11.52768 29526 ft 420 kts 205°
2026-05-07 16:20 56.96290 11.50683 30028 ft 423 kts 205°
2026-05-07 16:20 56.93586 11.48588 30491 ft 424 kts 205°
2026-05-07 16:20 56.90856 11.46470 31017 ft 423 kts 205°
2026-05-07 16:21 56.88146 11.44368 31599 ft 421 kts 205°
2026-05-07 16:21 56.85434 11.42265 32143 ft 421 kts 205°
2026-05-07 16:21 56.82761 11.40195 32612 ft 422 kts 205°
2026-05-07 16:21 56.80052 11.38100 33083 ft 422 kts 205°
2026-05-07 16:22 56.77346 11.36012 33623 ft 421 kts 205°
2026-05-07 16:22 56.74643 11.33929 34098 ft 421 kts 205°
2026-05-07 16:22 56.71927 11.31839 34099 ft 422 kts 205°
2026-05-07 16:23 56.66530 11.27698 34128 ft 421 kts 205°
2026-05-07 16:23 56.61162 11.23591 34123 ft 421 kts 205°
2026-05-07 16:24 56.55737 11.19453 34126 ft 421 kts 205°
2026-05-07 16:24 56.50336 11.15346 34125 ft 422 kts 205°
2026-05-07 16:25 56.44960 11.11271 34124 ft 422 kts 205°
2026-05-07 16:25 56.39517 11.07158 34129 ft 422 kts 205°
2026-05-07 16:26 56.34120 11.03091 34129 ft 422 kts 204°
2026-05-07 16:26 56.28695 10.99015 34120 ft 422 kts 204°
2026-05-07 16:27 56.23298 10.94975 34136 ft 421 kts 204°
2026-05-07 16:27 56.17878 10.90927 34127 ft 421 kts 204°
2026-05-07 16:28 56.12469 10.86902 34128 ft 421 kts 204°
2026-05-07 16:28 56.07064 10.82898 34122 ft 421 kts 204°
2026-05-07 16:29 56.01629 10.78883 34124 ft 421 kts 204°
2026-05-07 16:29 55.96233 10.74906 34112 ft 421 kts 204°
2026-05-07 16:30 55.90794 10.70909 34116 ft 421 kts 204°
2026-05-07 16:30 55.85393 10.66952 34123 ft 421 kts 204°
2026-05-07 16:31 55.79956 10.62981 34121 ft 421 kts 204°
2026-05-07 16:31 55.74532 10.59031 34118 ft 421 kts 203°
2026-05-07 16:32 55.69104 10.55090 34123 ft 420 kts 203°
2026-05-07 16:32 55.63713 10.51188 34120 ft 420 kts 203°
2026-05-07 16:33 55.58273 10.47261 34134 ft 420 kts 203°
2026-05-07 16:33 55.52875 10.43377 34127 ft 420 kts 203°
2026-05-07 16:34 55.47475 10.39503 34142 ft 419 kts 203°
2026-05-07 16:34 55.42047 10.35621 34130 ft 420 kts 203°
2026-05-07 16:35 55.36646 10.31769 34129 ft 420 kts 203°
2026-05-07 16:35 55.31248 10.27930 34129 ft 420 kts 203°
2026-05-07 16:36 55.25808 10.24073 34127 ft 420 kts 203°
2026-05-07 16:36 55.20359 10.20222 34129 ft 420 kts 202°
2026-05-07 16:37 55.14968 10.16421 34121 ft 420 kts 202°
2026-05-07 16:37 55.09566 10.12625 34122 ft 420 kts 202°
2026-05-07 16:38 55.04117 10.08806 34122 ft 420 kts 202°
2026-05-07 16:38 54.98680 10.05005 34128 ft 420 kts 202°
2026-05-07 16:39 54.93295 10.01171 34124 ft 419 kts 207°
2026-05-07 16:39 54.88565 9.95376 34128 ft 418 kts 225°
2026-05-07 16:40 54.84747 9.87650 34125 ft 418 kts 230°
2026-05-07 16:40 54.81026 9.79947 34126 ft 417 kts 230°
2026-05-07 16:41 54.77254 9.72305 34122 ft 418 kts 229°
2026-05-07 16:41 54.73477 9.64681 34118 ft 417 kts 229°
2026-05-07 16:42 54.69700 9.57066 34104 ft 417 kts 229°
2026-05-07 16:42 54.65903 9.49428 34104 ft 417 kts 229°
2026-05-07 16:43 54.62102 9.41817 34104 ft 417 kts 229°
2026-05-07 16:43 54.58324 9.34283 34100 ft 416 kts 229°
2026-05-07 16:44 54.54531 9.26737 34104 ft 416 kts 229°
2026-05-07 16:44 54.50725 9.19187 34107 ft 416 kts 229°
2026-05-07 16:45 54.46904 9.11628 34104 ft 416 kts 229°
2026-05-07 16:45 54.43712 9.05331 34099 ft 416 kts 229°
2026-05-07 16:46 54.39303 8.96661 34103 ft 416 kts 229°
2026-05-07 16:46 54.36129 8.90438 34093 ft 416 kts 229°
2026-05-07 16:47 54.32315 8.82982 34101 ft 416 kts 229°
2026-05-07 16:47 54.28490 8.75527 34096 ft 415 kts 229°
2026-05-07 16:48 54.24674 8.68112 34100 ft 415 kts 229°
2026-05-07 16:48 54.20849 8.60702 34096 ft 415 kts 229°
2026-05-07 16:49 54.17026 8.53319 34094 ft 414 kts 229°
2026-05-07 16:49 54.13233 8.46013 34097 ft 413 kts 228°
2026-05-07 16:50 54.09411 8.38670 34099 ft 413 kts 228°
2026-05-07 16:50 54.05590 8.31359 34096 ft 412 kts 228°
2026-05-07 16:51 54.01752 8.24120 34105 ft 412 kts 228°
2026-05-07 16:51 53.97894 8.16901 34099 ft 411 kts 228°
2026-05-07 16:52 53.94042 8.09704 34097 ft 411 kts 228°
2026-05-07 16:52 53.90218 8.02571 34099 ft 410 kts 227°
2026-05-07 16:53 53.86372 7.95416 34103 ft 410 kts 227°
2026-05-07 16:53 53.82494 7.88223 34091 ft 410 kts 227°
2026-05-07 16:54 53.78658 7.81127 34086 ft 410 kts 227°
2026-05-07 16:54 53.74808 7.74027 34076 ft 409 kts 227°
2026-05-07 16:55 53.70949 7.66931 34083 ft 409 kts 227°
2026-05-07 16:55 53.67086 7.59849 34076 ft 410 kts 227°
2026-05-07 16:56 53.63210 7.52763 34080 ft 410 kts 227°
2026-05-07 16:56 53.57400 7.42181 34083 ft 410 kts 227°
2026-05-07 16:57 53.53539 7.35173 34100 ft 410 kts 227°
2026-05-07 16:57 53.49636 7.28109 34104 ft 410 kts 227°
2026-05-07 16:58 53.45747 7.21091 34105 ft 410 kts 227°
2026-05-07 16:58 53.41852 7.14082 34110 ft 410 kts 227°
2026-05-07 16:59 53.37963 7.07100 34106 ft 410 kts 227°
2026-05-07 16:59 53.34063 7.00123 34096 ft 409 kts 227°
2026-05-07 17:00 53.30260 6.93038 34097 ft 409 kts 229°
2026-05-07 17:00 53.26530 6.85864 34077 ft 409 kts 229°
2026-05-07 17:01 53.22785 6.78720 34071 ft 409 kts 229°
2026-05-07 17:01 53.19021 6.71592 34075 ft 409 kts 228°
2026-05-07 17:02 53.15259 6.64470 34073 ft 409 kts 229°
2026-05-07 17:02 53.11576 6.57289 34078 ft 409 kts 230°
2026-05-07 17:03 53.07888 6.50063 34073 ft 409 kts 229°
2026-05-07 17:03 53.04190 6.42854 34072 ft 410 kts 229°
2026-05-07 17:04 53.00478 6.35653 34077 ft 410 kts 229°
2026-05-07 17:04 52.96755 6.28458 34088 ft 411 kts 229°
2026-05-07 17:05 52.93022 6.21264 34075 ft 411 kts 229°
2026-05-07 17:05 52.89279 6.14072 34075 ft 411 kts 229°
2026-05-07 17:06 52.85528 6.06886 34071 ft 411 kts 229°
2026-05-07 17:06 52.81784 5.99732 34077 ft 411 kts 229°
2026-05-07 17:07 52.78024 5.92569 34074 ft 411 kts 229°
2026-05-07 17:07 52.74295 5.85485 34073 ft 411 kts 229°
2026-05-07 17:08 52.70537 5.78367 34076 ft 411 kts 229°
2026-05-07 17:08 52.66763 5.71238 34071 ft 411 kts 229°
2026-05-07 17:09 52.62990 5.64131 34080 ft 411 kts 229°
2026-05-07 17:09 52.59244 5.57095 34071 ft 412 kts 229°
2026-05-07 17:10 52.55438 5.49966 34077 ft 412 kts 229°
2026-05-07 17:10 52.51672 5.42929 34076 ft 412 kts 229°
2026-05-07 17:11 52.47869 5.35845 34078 ft 413 kts 229°
2026-05-07 17:11 52.44071 5.28797 34072 ft 413 kts 229°
2026-05-07 17:12 52.40877 5.22881 34077 ft 413 kts 229°
2026-05-07 17:12 52.36420 5.14646 34071 ft 413 kts 229°
2026-05-07 17:13 52.32215 5.08351 34078 ft 414 kts 214°
2026-05-07 17:13 52.27098 5.03962 34074 ft 415 kts 206°
2026-05-07 17:14 52.21873 4.99904 34072 ft 415 kts 206°
2026-05-07 17:14 52.16665 4.95834 34074 ft 415 kts 206°
2026-05-07 17:15 52.11498 4.91764 34074 ft 415 kts 207°
2026-05-07 17:15 52.06297 4.87659 34071 ft 415 kts 207°
2026-05-07 17:16 52.01973 4.84252 34074 ft 415 kts 207°
2026-05-07 17:16 51.96776 4.80167 34073 ft 415 kts 206°
2026-05-07 17:17 51.91570 4.76086 34074 ft 415 kts 206°
2026-05-07 17:17 51.86353 4.72008 34072 ft 415 kts 206°
2026-05-07 17:18 51.81143 4.67945 34085 ft 415 kts 206°
2026-05-07 17:18 51.75923 4.63885 34085 ft 416 kts 206°
2026-05-07 17:19 51.70727 4.59855 34078 ft 416 kts 206°
2026-05-07 17:19 51.65505 4.55815 34068 ft 416 kts 206°
2026-05-07 17:20 51.60259 4.51766 34073 ft 417 kts 206°
2026-05-07 17:20 51.55033 4.47742 33804 ft 420 kts 206°
2026-05-07 17:21 51.52396 4.45716 33201 ft 418 kts 206°
2026-05-07 17:21 51.49777 4.43708 32534 ft 415 kts 206°
2026-05-07 17:21 51.47172 4.41711 31816 ft 414 kts 206°
2026-05-07 17:21 51.44571 4.39720 31181 ft 412 kts 206°
2026-05-07 17:22 51.41988 4.37746 30637 ft 408 kts 206°
2026-05-07 17:22 51.39440 4.35801 30104 ft 404 kts 206°
2026-05-07 17:22 51.36906 4.33869 29496 ft 400 kts 206°
2026-05-07 17:22 51.34442 4.31992 28906 ft 395 kts 206°
2026-05-07 17:23 51.31972 4.30113 28360 ft 390 kts 206°
2026-05-07 17:23 51.29504 4.28237 27804 ft 386 kts 206°
2026-05-07 17:23 51.27116 4.26423 27291 ft 382 kts 206°
2026-05-07 17:23 51.24724 4.24609 26743 ft 378 kts 206°
2026-05-07 17:24 51.22353 4.22815 26330 ft 372 kts 206°
2026-05-07 17:24 51.20037 4.21163 26193 ft 359 kts 199°
2026-05-07 17:24 51.17591 4.20638 26038 ft 351 kts 178°
2026-05-07 17:24 51.15215 4.21407 25694 ft 349 kts 161°
2026-05-07 17:25 51.13079 4.23248 25275 ft 351 kts 144°
2026-05-07 17:25 51.11243 4.25719 24893 ft 349 kts 140°
2026-05-07 17:25 51.09450 4.28326 24482 ft 348 kts 139°
2026-05-07 17:25 51.07683 4.30940 24083 ft 347 kts 139°
2026-05-07 17:26 51.05916 4.33547 23663 ft 346 kts 139°
2026-05-07 17:26 51.04148 4.36134 23184 ft 345 kts 139°
2026-05-07 17:26 51.02377 4.38705 22738 ft 343 kts 139°
2026-05-07 17:26 51.00618 4.41242 22321 ft 340 kts 139°
2026-05-07 17:27 50.98863 4.43763 21917 ft 338 kts 139°
2026-05-07 17:27 50.97143 4.46229 21513 ft 336 kts 139°
2026-05-07 17:27 50.95404 4.48716 21120 ft 333 kts 139°
2026-05-07 17:27 50.93698 4.51152 20718 ft 332 kts 139°
2026-05-07 17:28 50.91972 4.53615 20324 ft 330 kts 139°
2026-05-07 17:28 50.90260 4.56055 19928 ft 328 kts 139°
2026-05-07 17:28 50.88578 4.58449 19537 ft 327 kts 139°
2026-05-07 17:28 50.86867 4.60882 19145 ft 326 kts 139°
2026-05-07 17:29 50.85183 4.63275 18754 ft 325 kts 139°
2026-05-07 17:29 50.83502 4.65662 18363 ft 324 kts 139°
2026-05-07 17:29 50.81825 4.68041 17924 ft 323 kts 139°
2026-05-07 17:29 50.80157 4.70405 17439 ft 320 kts 140°
2026-05-07 17:30 50.78509 4.72737 17106 ft 316 kts 140°
2026-05-07 17:30 50.76877 4.75043 16713 ft 314 kts 140°
2026-05-07 17:30 50.75431 4.77605 16316 ft 314 kts 122°
2026-05-07 17:30 50.74657 4.80823 15962 ft 313 kts 104°
2026-05-07 17:31 50.74177 4.84171 15571 ft 312 kts 103°
2026-05-07 17:31 50.73735 4.87514 15185 ft 310 kts 102°
2026-05-07 17:31 50.73281 4.90963 14798 ft 309 kts 103°
2026-05-07 17:31 50.72847 4.94215 14425 ft 308 kts 103°
2026-05-07 17:32 50.72404 4.97478 14058 ft 307 kts 103°
2026-05-07 17:32 50.71950 5.00790 13653 ft 305 kts 103°
2026-05-07 17:32 50.71493 5.04087 13247 ft 304 kts 103°
2026-05-07 17:32 50.71193 5.06237 12981 ft 303 kts 103°
2026-05-07 17:33 50.70589 5.10557 12483 ft 300 kts 103°
2026-05-07 17:33 50.70146 5.13706 12120 ft 298 kts 103°
2026-05-07 17:33 50.69697 5.16893 11736 ft 296 kts 103°
2026-05-07 17:33 50.69250 5.20059 11352 ft 295 kts 103°
2026-05-07 17:34 50.68801 5.23226 10979 ft 294 kts 103°
2026-05-07 17:34 50.68359 5.26343 10616 ft 292 kts 103°
2026-05-07 17:34 50.67918 5.29453 10272 ft 290 kts 103°
2026-05-07 17:34 50.67487 5.32483 10108 ft 281 kts 103°
2026-05-07 17:35 50.67066 5.35429 9834 ft 277 kts 103°
2026-05-07 17:35 50.66636 5.38429 9486 ft 275 kts 103°
2026-05-07 17:35 50.66195 5.41337 9156 ft 273 kts 109°
2026-05-07 17:35 50.65204 5.43839 8853 ft 268 kts 137°
2026-05-07 17:36 50.63642 5.45281 8542 ft 264 kts 165°
2026-05-07 17:36 50.61821 5.45530 8219 ft 261 kts 188°
2026-05-07 17:36 50.60076 5.44920 7920 ft 258 kts 195°
2026-05-07 17:36 50.58338 5.44169 7602 ft 257 kts 196°
2026-05-07 17:37 50.56630 5.43421 7292 ft 256 kts 196°
2026-05-07 17:37 50.54905 5.42677 6976 ft 255 kts 195°
2026-05-07 17:37 50.53196 5.41953 6675 ft 254 kts 195°
2026-05-07 17:37 50.51486 5.41237 6362 ft 253 kts 195°
2026-05-07 17:38 50.49783 5.40528 6038 ft 252 kts 195°
2026-05-07 17:38 50.48111 5.39833 5725 ft 251 kts 195°
2026-05-07 17:38 50.46510 5.38786 5388 ft 246 kts 217°
2026-05-07 17:38 50.45334 5.37034 5278 ft 223 kts 225°
2026-05-07 17:39 50.44271 5.35365 5127 ft 207 kts 225°
2026-05-07 17:39 50.43280 5.33817 5022 ft 195 kts 225°
2026-05-07 17:39 50.42451 5.32250 4919 ft 184 kts 246°
2026-05-07 17:39 50.42312 5.30357 4903 ft 171 kts 281°
2026-05-07 17:40 50.42831 5.28749 4768 ft 161 kts 313°
2026-05-07 17:40 50.43594 5.27546 4703 ft 152 kts 315°
2026-05-07 17:40 50.44341 5.26363 4651 ft 153 kts 315°
2026-05-07 17:40 50.45106 5.25158 4600 ft 157 kts 315°
2026-05-07 17:41 50.45894 5.23923 4480 ft 162 kts 315°
2026-05-07 17:41 50.46678 5.22697 4334 ft 160 kts 316°
2026-05-07 17:41 50.47498 5.21510 4176 ft 160 kts 330°
2026-05-07 17:41 50.48537 5.21402 4045 ft 151 kts 28°
2026-05-07 17:42 50.49372 5.22380 3941 ft 151 kts 38°
2026-05-07 17:42 50.50216 5.23397 3825 ft 151 kts 38°
2026-05-07 17:42 50.51039 5.24417 3816 ft 150 kts 41°
2026-05-07 17:42 50.51814 5.25506 3794 ft 153 kts 44°
2026-05-07 17:43 50.52598 5.26699 3604 ft 158 kts 45°
2026-05-07 17:43 50.53373 5.27915 3392 ft 156 kts 45°
2026-05-07 17:43 50.54033 5.28961 3212 ft 155 kts 46°
2026-05-07 17:43 50.54792 5.30170 2997 ft 153 kts 46°
2026-05-07 17:44 50.55536 5.31355 2788 ft 149 kts 46°
2026-05-07 17:44 50.56243 5.32481 2592 ft 141 kts 45°
2026-05-07 17:44 50.56914 5.33548 2399 ft 133 kts 45°
2026-05-07 17:44 50.57541 5.34547 2263 ft 124 kts 45°
2026-05-07 17:45 50.58144 5.35507 2067 ft 120 kts 46°
2026-05-07 17:45 50.58728 5.36436 1909 ft 122 kts 45°
2026-05-07 17:45 50.59328 5.37391 1743 ft 122 kts 45°
2026-05-07 17:45 50.59920 5.38338 1559 ft 122 kts 46°
2026-05-07 17:46 50.60509 5.39276 1388 ft 121 kts 44°
2026-05-07 17:46 50.61082 5.40189 1231 ft 124 kts 44°
2026-05-07 17:46 50.61700 5.41173 1058 ft 123 kts 44°
2026-05-07 17:46 50.62096 5.41807 938 ft 122 kts 43°
2026-05-07 17:47 50.62894 5.43072 719 ft 121 kts 43°
2026-05-07 17:47 50.63340 5.43773 652 ft 109 kts 43°
2026-05-07 17:47 50.63821 5.44538 620 ft 74 kts 45°
2026-05-07 17:48 50.64071 5.44934 600 ft 44 kts 45°
2026-05-07 17:48 50.64282 5.45268 597 ft 38 kts 45°
2026-05-07 17:48 50.64391 5.45471 603 ft 9 kts 78°
2026-05-07 17:48 50.64390 5.45558 611 ft 7 kts 91°
2026-05-07 17:49 50.64389 5.45613 609 ft 1 kts 91°
2026-05-07 17:49 50.64389 5.45623 609 ft 2 kts 92°
2026-05-07 17:49 50.64384 5.45678 613 ft 6 kts 110°
2026-05-07 17:49 50.64339 5.45710 618 ft 10 kts 193°
2026-05-07 17:50 50.64275 5.45622 615 ft 14 kts 224°
2026-05-07 17:50 50.64201 5.45505 623 ft 16 kts 225°
2026-05-07 17:50 50.64135 5.45399 625 ft 13 kts 225°
2026-05-07 17:50 50.64072 5.45298 614 ft 11 kts 225°
2026-05-07 17:51 50.64000 5.45187 621 ft 18 kts 224°
2026-05-07 17:51 50.63969 5.45137 620 ft 7 kts 226°
2026-05-07 17:51 50.63916 5.45051 620 ft 14 kts 225°
2026-05-07 17:51 50.63834 5.44922 619 ft 20 kts 225°
2026-05-07 17:52 50.63750 5.44787 620 ft 18 kts 225°
2026-05-07 17:52 50.63698 5.44743 619 ft 4 kts 159°
2026-05-07 17:52 50.63669 5.44785 626 ft 5 kts 135°
2026-05-07 17:52 50.63644 5.44824 623 ft 2 kts 135°
2026-05-07 17:53 50.63637 5.44836 615 ft 1 kts 134°
2026-05-07 17:53 50.63635 5.44838 615 ft 0 kts 134°